Time,TemperatureF,DewpointF,PressureIn,WindDirection,WindDirectionDegrees,WindSpeedMPH,WindSpeedGustMPH,Humidity,HourlyPrecipIn,Conditions,Clouds,dailyrainin,SoftwareType,DateUTC
2013-09-02 00:03:00,68.8,60.9,29.93,NNE,24,0.0,1.0,76,0.00,,CLR,0.00,VWS V14.01,2013-09-02 05:03:00,
2013-09-02 00:08:00,68.7,60.8,29.93,NNE,24,0.0,2.0,76,0.00,,CLR,0.00,VWS V14.01,2013-09-02 05:08:00,
2013-09-02 00:13:00,68.6,60.7,29.93,NNE,24,1.0,2.0,76,0.00,,CLR,0.00,VWS V14.01,2013-09-02 05:13:00,
2013-09-02 00:18:00,68.6,61.1,29.93,NNE,24,0.0,1.0,77,0.00,,CLR,0.00,VWS V14.01,2013-09-02 05:18:00,
2013-09-02 00:23:00,68.5,61.0,29.93,NNE,13,0.0,3.0,77,0.00,,CLR,0.00,VWS V14.01,2013-09-02 05:23:00,
2013-09-02 00:28:00,68.5,61.0,29.93,NNE,13,2.0,3.0,77,0.00,,CLR,0.00,VWS V14.01,2013-09-02 05:28:00,
2013-09-02 00:33:00,68.4,60.9,29.93,NNE,13,1.0,1.0,77,0.00,,CLR,0.00,VWS V14.01,2013-09-02 05:33:00,
2013-09-02 00:38:00,68.4,60.9,29.93,NNE,13,1.0,1.0,77,0.00,,CLR,0.00,VWS V14.01,2013-09-02 05:38:00,
2013-09-02 00:43:00,68.3,61.2,29.93,WNW,293,0.0,1.0,78,0.00,,CLR,0.00,VWS V14.01,2013-09-02 05:43:00,
2013-09-02 00:48:00,68.3,61.2,29.93,WNW,295,0.0,1.0,78,0.00,,CLR,0.00,VWS V14.01,2013-09-02 05:48:00,
2013-09-02 00:53:00,68.2,61.1,29.93,NNW,345,1.0,3.0,78,0.00,,CLR,0.00,VWS V14.01,2013-09-02 05:53:00,
2013-09-02 00:58:00,68.2,61.1,29.93,NNE,12,0.0,1.0,78,0.00,,CLR,0.00,VWS V14.01,2013-09-02 05:58:00,
2013-09-02 01:03:00,68.1,61.0,29.94,NNE,25,1.0,4.0,78,0.00,,CLR,0.00,VWS V14.01,2013-09-02 06:03:00,
2013-09-02 01:08:00,68.1,61.0,29.94,NNE,15,2.0,5.0,78,0.00,,CLR,0.00,VWS V14.01,2013-09-02 06:08:00,
2013-09-02 01:13:00,68.1,61.0,29.94,North,4,1.0,5.0,78,0.00,,CLR,0.00,VWS V14.01,2013-09-02 06:13:00,
2013-09-02 01:18:00,67.9,61.2,29.94,North,11,3.0,3.0,79,0.00,,CLR,0.00,VWS V14.01,2013-09-02 06:18:00,
2013-09-02 01:23:00,67.6,60.9,29.94,NNE,13,1.0,3.0,79,0.00,,CLR,0.00,VWS V14.01,2013-09-02 06:23:00,
2013-09-02 01:28:00,67.2,60.8,29.95,North,359,4.0,5.0,80,0.00,,CLR,0.00,VWS V14.01,2013-09-02 06:28:00,
2013-09-02 01:33:00,66.8,60.8,29.95,NNE,13,4.0,6.0,81,0.00,,CLR,0.00,VWS V14.01,2013-09-02 06:33:00,
2013-09-02 01:38:00,66.5,60.8,29.95,North,359,1.0,6.0,82,0.00,,CLR,0.00,VWS V14.01,2013-09-02 06:38:00,
2013-09-02 01:43:00,66.2,60.5,29.95,North,4,4.0,5.0,82,0.00,,CLR,0.00,VWS V14.01,2013-09-02 06:43:00,
2013-09-02 01:48:00,66.0,60.7,29.94,NNE,23,6.0,6.0,83,0.00,,CLR,0.00,VWS V14.01,2013-09-02 06:48:00,
2013-09-02 01:53:00,65.8,60.5,29.95,North,10,3.0,6.0,83,0.00,,CLR,0.00,VWS V14.01,2013-09-02 06:53:00,
2013-09-02 01:58:00,65.6,60.6,29.95,North,10,4.0,5.0,84,0.00,,CLR,0.00,VWS V14.01,2013-09-02 06:58:00,
2013-09-02 02:03:00,65.4,60.5,29.94,North,4,3.0,5.0,84,0.00,,CLR,0.00,VWS V14.01,2013-09-02 07:03:00,
2013-09-02 02:08:00,65.2,60.2,29.95,NNW,329,5.0,6.0,84,0.00,,CLR,0.00,VWS V14.01,2013-09-02 07:08:00,
2013-09-02 02:13:00,65.0,60.4,29.95,NNE,16,3.0,3.0,85,0.00,,CLR,0.00,VWS V14.01,2013-09-02 07:13:00,
2013-09-02 02:18:00,64.8,60.2,29.95,NNE,24,5.0,5.0,85,0.00,,CLR,0.00,VWS V14.01,2013-09-02 07:18:00,
2013-09-02 02:23:00,64.7,60.1,29.95,NNE,13,4.0,5.0,85,0.00,,CLR,0.00,VWS V14.01,2013-09-02 07:23:00,
2013-09-02 02:28:00,64.5,59.9,29.95,North,8,3.0,5.0,85,0.00,,CLR,0.00,VWS V14.01,2013-09-02 07:28:00,
2013-09-02 02:33:00,64.4,59.8,29.95,NNE,27,5.0,5.0,85,0.00,,CLR,0.00,VWS V14.01,2013-09-02 07:33:00,
2013-09-02 02:38:00,64.3,60.0,29.95,North,8,3.0,4.0,86,0.00,,CLR,0.00,VWS V14.01,2013-09-02 07:38:00,
2013-09-02 02:43:00,64.2,59.9,29.95,NNE,23,3.0,5.0,86,0.00,,CLR,0.00,VWS V14.01,2013-09-02 07:43:00,
2013-09-02 02:48:00,64.0,59.7,29.95,NNE,17,3.0,6.0,86,0.00,,CLR,0.00,VWS V14.01,2013-09-02 07:48:00,
2013-09-02 02:53:00,63.9,59.6,29.95,NE,43,3.0,6.0,86,0.00,,CLR,0.00,VWS V14.01,2013-09-02 07:53:00,
2013-09-02 02:58:00,63.7,59.4,29.95,North,359,4.0,5.0,86,0.00,,CLR,0.00,VWS V14.01,2013-09-02 07:58:00,
2013-09-02 03:03:00,63.6,59.7,29.96,NNE,21,2.0,5.0,87,0.00,,CLR,0.00,VWS V14.01,2013-09-02 08:03:00,
2013-09-02 03:08:00,63.5,59.6,29.96,North,11,3.0,4.0,87,0.00,,CLR,0.00,VWS V14.01,2013-09-02 08:08:00,
2013-09-02 03:13:00,63.4,59.5,29.96,North,4,2.0,6.0,87,0.00,,CLR,0.00,VWS V14.01,2013-09-02 08:13:00,
2013-09-02 03:18:00,63.4,59.5,29.96,North,8,2.0,4.0,87,0.00,,CLR,0.00,VWS V14.01,2013-09-02 08:18:00,
2013-09-02 03:23:00,63.4,59.5,29.96,NNE,18,4.0,5.0,87,0.00,,CLR,0.00,VWS V14.01,2013-09-02 08:23:00,
2013-09-02 03:28:00,63.3,59.4,29.96,NNE,20,2.0,4.0,87,0.00,,CLR,0.00,VWS V14.01,2013-09-02 08:28:00,
2013-09-02 03:33:00,63.2,59.3,29.96,North,4,0.0,4.0,87,0.00,,CLR,0.00,VWS V14.01,2013-09-02 08:33:00,
2013-09-02 03:38:00,63.0,59.4,29.95,North,4,2.0,3.0,88,0.00,,CLR,0.00,VWS V14.01,2013-09-02 08:38:00,
2013-09-02 03:43:00,62.9,59.3,29.95,NNE,28,2.0,3.0,88,0.00,,CLR,0.00,VWS V14.01,2013-09-02 08:43:00,
2013-09-02 03:48:00,62.7,59.1,29.96,NNE,12,1.0,4.0,88,0.00,,CLR,0.00,VWS V14.01,2013-09-02 08:48:00,
2013-09-02 03:53:00,62.5,58.9,29.96,NNE,12,0.0,3.0,88,0.00,,CLR,0.00,VWS V14.01,2013-09-02 08:53:00,
2013-09-02 03:58:00,62.4,59.1,29.96,NNE,15,3.0,3.0,89,0.00,,CLR,0.00,VWS V14.01,2013-09-02 08:58:00,
2013-09-02 04:03:00,62.3,59.0,29.95,NNE,15,3.0,4.0,89,0.00,,CLR,0.00,VWS V14.01,2013-09-02 09:03:00,
2013-09-02 04:09:00,62.2,58.9,29.96,North,8,1.0,5.0,89,0.00,,CLR,0.00,VWS V14.01,2013-09-02 09:09:00,
2013-09-02 04:14:00,62.1,58.8,29.96,North,8,2.0,4.0,89,0.00,,CLR,0.00,VWS V14.01,2013-09-02 09:14:00,
2013-09-02 04:19:00,62.1,58.8,29.96,North,8,0.0,0.0,89,0.00,,CLR,0.00,VWS V14.01,2013-09-02 09:19:00,
2013-09-02 04:24:00,62.0,58.7,29.96,North,8,0.0,1.0,89,0.00,,CLR,0.00,VWS V14.01,2013-09-02 09:24:00,
2013-09-02 04:29:00,61.9,58.9,29.96,North,8,1.0,2.0,90,0.00,,CLR,0.00,VWS V14.01,2013-09-02 09:29:00,
2013-09-02 04:34:00,61.8,58.8,29.96,NNE,18,0.0,3.0,90,0.00,,CLR,0.00,VWS V14.01,2013-09-02 09:34:00,
2013-09-02 04:39:00,61.7,58.7,29.96,NNE,18,1.0,3.0,90,0.00,,CLR,0.00,VWS V14.01,2013-09-02 09:39:00,
2013-09-02 04:44:00,61.6,59.0,29.96,NNE,18,1.0,2.0,91,0.00,,CLR,0.00,VWS V14.01,2013-09-02 09:44:00,
2013-09-02 04:49:00,61.4,58.8,29.97,NNE,18,2.0,3.0,91,0.00,,CLR,0.00,VWS V14.01,2013-09-02 09:49:00,
2013-09-02 04:54:00,61.3,58.7,29.97,NNE,18,1.0,2.0,91,0.00,,CLR,0.00,VWS V14.01,2013-09-02 09:54:00,
2013-09-02 04:59:00,61.2,58.6,29.97,NNE,18,2.0,4.0,91,0.00,,CLR,0.00,VWS V14.01,2013-09-02 09:59:00,
2013-09-02 05:04:00,61.0,58.4,29.97,North,9,3.0,4.0,91,0.00,,CLR,0.00,VWS V14.01,2013-09-02 10:04:00,
2013-09-02 05:09:00,60.9,58.3,29.97,NNE,24,3.0,4.0,91,0.00,,CLR,0.00,VWS V14.01,2013-09-02 10:09:00,
2013-09-02 05:14:00,60.8,58.2,29.97,North,10,1.0,3.0,91,0.00,,CLR,0.00,VWS V14.01,2013-09-02 10:14:00,
2013-09-02 05:19:00,60.7,58.1,29.97,NNE,21,2.0,3.0,91,0.00,,CLR,0.00,VWS V14.01,2013-09-02 10:19:00,
2013-09-02 05:24:00,60.5,57.9,29.97,NNE,21,0.0,2.0,91,0.00,,CLR,0.00,VWS V14.01,2013-09-02 10:24:00,
2013-09-02 05:29:00,60.5,57.9,29.97,NNE,21,2.0,3.0,91,0.00,,CLR,0.00,VWS V14.01,2013-09-02 10:29:00,
2013-09-02 05:34:00,60.4,58.1,29.97,NNE,19,3.0,4.0,92,0.00,,CLR,0.00,VWS V14.01,2013-09-02 10:34:00,
2013-09-02 05:39:00,60.3,58.0,29.97,NNE,19,1.0,3.0,92,0.00,,CLR,0.00,VWS V14.01,2013-09-02 10:39:00,
2013-09-02 05:44:00,60.2,57.9,29.98,NNE,18,1.0,3.0,92,0.00,,CLR,0.00,VWS V14.01,2013-09-02 10:44:00,
2013-09-02 05:49:00,60.2,57.9,29.98,NNE,12,3.0,3.0,92,0.00,,CLR,0.00,VWS V14.01,2013-09-02 10:49:00,
2013-09-02 05:54:00,60.1,57.8,29.98,NNE,12,2.0,3.0,92,0.00,,CLR,0.00,VWS V14.01,2013-09-02 10:54:00,
2013-09-02 05:59:00,60.0,57.7,29.98,North,10,2.0,3.0,92,0.00,,CLR,0.00,VWS V14.01,2013-09-02 10:59:00,
2013-09-02 06:04:00,60.0,57.7,29.98,North,10,2.0,3.0,92,0.00,,CLR,0.00,VWS V14.01,2013-09-02 11:04:00,
2013-09-02 06:09:00,59.9,57.6,29.98,North,10,1.0,3.0,92,0.00,,CLR,0.00,VWS V14.01,2013-09-02 11:09:00,
2013-09-02 06:14:00,59.8,57.5,29.99,North,10,0.0,1.0,92,0.00,,CLR,0.00,VWS V14.01,2013-09-02 11:14:00,
2013-09-02 06:19:00,59.7,57.4,29.98,North,10,3.0,3.0,92,0.00,,CLR,0.00,VWS V14.01,2013-09-02 11:19:00,
2013-09-02 06:24:00,59.7,57.7,29.99,North,10,2.0,3.0,93,0.00,,CLR,0.00,VWS V14.01,2013-09-02 11:24:00,
2013-09-02 06:29:00,59.5,57.2,29.99,North,10,0.0,0.0,92,0.00,,CLR,0.00,VWS V14.01,2013-09-02 11:29:00,
2013-09-02 06:35:00,59.4,57.4,29.99,North,10,2.0,2.0,93,0.00,,CLR,0.00,VWS V14.01,2013-09-02 11:35:00,
2013-09-02 06:40:00,59.3,57.3,29.99,North,10,0.0,2.0,93,0.00,,CLR,0.00,VWS V14.01,2013-09-02 11:40:00,
2013-09-02 06:45:00,59.3,57.3,29.99,North,10,0.0,3.0,93,0.00,,CLR,0.00,VWS V14.01,2013-09-02 11:45:00,
2013-09-02 06:50:00,59.2,57.2,29.99,North,10,0.0,0.0,93,0.00,,CLR,0.00,VWS V14.01,2013-09-02 11:50:00,
2013-09-02 06:55:00,59.0,57.0,29.99,North,10,4.0,4.0,93,0.00,,CLR,0.00,VWS V14.01,2013-09-02 11:55:00,
2013-09-02 07:00:00,59.0,57.0,30.00,North,10,0.0,2.0,93,0.00,,CLR,0.00,VWS V14.01,2013-09-02 12:00:00,
2013-09-02 07:05:00,58.9,56.9,30.00,North,10,1.0,1.0,93,0.00,,CLR,0.00,VWS V14.01,2013-09-02 12:05:00,
2013-09-02 07:10:00,58.9,56.9,30.00,NNE,18,1.0,3.0,93,0.00,,CLR,0.00,VWS V14.01,2013-09-02 12:10:00,
2013-09-02 07:15:00,58.9,56.9,30.00,NNE,19,1.0,4.0,93,0.00,,CLR,0.00,VWS V14.01,2013-09-02 12:15:00,
2013-09-02 07:20:00,58.9,56.9,30.00,NNE,19,2.0,3.0,93,0.00,,CLR,0.00,VWS V14.01,2013-09-02 12:20:00,
2013-09-02 07:25:00,59.0,57.0,30.00,NNE,19,1.0,2.0,93,0.00,,CLR,0.00,VWS V14.01,2013-09-02 12:25:00,
2013-09-02 07:30:00,59.1,57.1,30.01,NNE,19,1.0,1.0,93,0.00,,CLR,0.00,VWS V14.01,2013-09-02 12:30:00,
2013-09-02 07:35:00,59.4,57.4,30.01,NNE,19,0.0,3.0,93,0.00,,CLR,0.00,VWS V14.01,2013-09-02 12:35:00,
2013-09-02 07:40:00,59.7,57.7,30.01,NNE,18,1.0,4.0,93,0.00,,CLR,0.00,VWS V14.01,2013-09-02 12:40:00,
2013-09-02 07:45:00,60.0,57.7,30.01,NNE,14,0.0,2.0,92,0.00,,CLR,0.00,VWS V14.01,2013-09-02 12:45:00,
2013-09-02 07:50:00,60.4,58.1,30.01,NNE,14,0.0,0.0,92,0.00,,SCT011,0.00,VWS V14.01,2013-09-02 12:50:00,
2013-09-02 07:55:00,60.8,58.2,30.01,NNE,13,4.0,4.0,91,0.00,,SCT011,0.00,VWS V14.01,2013-09-02 12:55:00,
2013-09-02 08:00:00,61.0,58.0,30.01,North,4,2.0,6.0,90,0.00,,SCT011,0.00,VWS V14.01,2013-09-02 13:00:00,
2013-09-02 08:05:00,61.3,58.3,30.02,North,11,2.0,2.0,90,0.00,,SCT011,0.00,VWS V14.01,2013-09-02 13:05:00,
2013-09-02 08:10:00,61.5,58.2,30.02,North,10,4.0,4.0,89,0.00,,SCT011,0.00,VWS V14.01,2013-09-02 13:10:00,
2013-09-02 08:15:00,61.7,58.4,30.02,NNE,24,3.0,4.0,89,0.00,,SCT011,0.00,VWS V14.01,2013-09-02 13:15:00,
2013-09-02 08:20:00,61.9,58.3,30.02,North,4,4.0,4.0,88,0.00,,SCT011,0.00,VWS V14.01,2013-09-02 13:20:00,
2013-09-02 08:25:00,62.3,58.7,30.02,NE,34,1.0,4.0,88,0.00,,SCT011,0.00,VWS V14.01,2013-09-02 13:25:00,
2013-09-02 08:30:00,62.7,59.1,30.02,NNE,13,1.0,2.0,88,0.00,,SCT011,0.00,VWS V14.01,2013-09-02 13:30:00,
2013-09-02 08:35:00,63.2,59.3,30.02,NNE,12,4.0,5.0,87,0.00,,SCT011,0.00,VWS V14.01,2013-09-02 13:35:00,
2013-09-02 08:40:00,63.4,59.2,30.02,NNE,23,7.0,7.0,86,0.00,,,0.00,VWS V14.01,2013-09-02 13:40:00,
2013-09-02 08:45:00,63.3,59.0,30.02,NNE,31,2.0,5.0,86,0.00,,,0.00,VWS V14.01,2013-09-02 13:45:00,
2013-09-02 08:50:00,63.4,59.2,30.02,NNE,13,5.0,8.0,86,0.00,,,0.00,VWS V14.01,2013-09-02 13:50:00,
2013-09-02 08:55:00,63.5,58.9,30.02,North,4,8.0,8.0,85,0.00,,,0.00,VWS V14.01,2013-09-02 13:55:00,
2013-09-02 09:00:00,63.5,58.9,30.02,North,4,5.0,7.0,85,0.00,,,0.00,VWS V14.01,2013-09-02 14:00:00,
2013-09-02 09:05:00,63.9,59.3,30.02,North,10,0.0,4.0,85,0.00,,,0.00,VWS V14.01,2013-09-02 14:05:00,
2013-09-02 09:10:00,64.5,59.6,30.03,North,350,4.0,5.0,84,0.00,,,0.00,VWS V14.01,2013-09-02 14:10:00,
2013-09-02 09:15:00,64.8,59.2,30.03,NNE,31,4.0,6.0,82,0.00,,,0.00,VWS V14.01,2013-09-02 14:15:00,
2013-09-02 09:20:00,65.2,59.2,30.03,North,4,5.0,8.0,81,0.00,,,0.00,VWS V14.01,2013-09-02 14:20:00,
2013-09-02 09:25:00,65.3,58.6,30.03,NNW,344,1.0,6.0,79,0.00,,,0.00,VWS V14.01,2013-09-02 14:25:00,
2013-09-02 09:30:00,65.6,59.3,30.03,NNE,31,3.0,6.0,80,0.00,,,0.00,VWS V14.01,2013-09-02 14:30:00,
2013-09-02 09:35:00,65.7,59.0,30.04,North,8,2.0,4.0,79,0.00,,,0.00,VWS V14.01,2013-09-02 14:35:00,
2013-09-02 09:40:00,65.8,59.5,30.04,North,354,5.0,6.0,80,0.00,,SCT011,0.00,VWS V14.01,2013-09-02 14:40:00,
2013-09-02 09:45:00,66.1,59.0,30.04,NE,37,4.0,6.0,78,0.00,,SCT011,0.00,VWS V14.01,2013-09-02 14:45:00,
2013-09-02 09:50:00,66.2,59.2,30.04,North,354,2.0,6.0,78,0.00,,SCT011,0.00,VWS V14.01,2013-09-02 14:50:00,
2013-09-02 09:56:00,66.2,59.5,30.04,North,359,4.0,6.0,79,0.00,,SCT011,0.00,VWS V14.01,2013-09-02 14:56:00,
2013-09-02 10:01:00,66.9,59.8,30.05,NNE,26,2.0,4.0,78,0.00,,SCT011,0.00,VWS V14.01,2013-09-02 15:01:00,
2013-09-02 10:06:00,67.3,59.8,30.05,NNE,12,5.0,7.0,77,0.00,,SCT011,0.00,VWS V14.01,2013-09-02 15:06:00,
2013-09-02 10:11:00,67.1,59.7,30.05,NNE,19,4.0,4.0,77,0.00,,SCT011,0.00,VWS V14.01,2013-09-02 15:11:00,
2013-09-02 10:16:00,67.5,60.0,30.05,North,4,0.0,2.0,77,0.00,,SCT011,0.00,VWS V14.01,2013-09-02 15:16:00,
2013-09-02 10:21:00,67.8,60.3,30.04,North,354,3.0,4.0,77,0.00,,SCT011,0.00,VWS V14.01,2013-09-02 15:21:00,
2013-09-02 10:26:00,68.2,60.3,30.04,NNE,13,1.0,3.0,76,0.00,,SCT011,0.00,VWS V14.01,2013-09-02 15:26:00,
2013-09-02 10:31:00,68.8,60.6,30.04,North,10,3.0,7.0,75,0.00,,SCT011,0.00,VWS V14.01,2013-09-02 15:31:00,
2013-09-02 10:36:00,68.7,60.5,30.04,ESE,113,1.0,3.0,75,0.00,,SCT011,0.00,VWS V14.01,2013-09-02 15:36:00,
2013-09-02 10:41:00,68.9,60.3,30.04,North,9,5.0,6.0,74,0.00,,SCT004,0.00,VWS V14.01,2013-09-02 15:41:00,
2013-09-02 10:46:00,68.7,59.7,30.04,NNE,16,5.0,5.0,73,0.00,,SCT004,0.00,VWS V14.01,2013-09-02 15:46:00,
2013-09-02 10:51:00,68.5,59.5,30.04,NNE,12,3.0,5.0,73,0.00,,SCT004,0.00,VWS V14.01,2013-09-02 15:51:00,
2013-09-02 10:56:00,68.6,59.6,30.04,North,354,0.0,5.0,73,0.00,,SCT004,0.00,VWS V14.01,2013-09-02 15:56:00,
2013-09-02 11:01:00,69.3,60.3,30.04,ENE,70,3.0,5.0,73,0.00,,SCT004,0.00,VWS V14.01,2013-09-02 16:01:00,
2013-09-02 11:06:00,69.9,60.9,30.04,NE,50,3.0,4.0,73,0.00,,SCT004,0.00,VWS V14.01,2013-09-02 16:06:00,
2013-09-02 11:11:00,70.2,60.4,30.04,NNE,14,2.0,6.0,71,0.00,,SCT004,0.00,VWS V14.01,2013-09-02 16:11:00,
2013-09-02 11:16:00,70.3,60.1,30.04,North,349,3.0,8.0,70,0.00,,SCT004,0.00,VWS V14.01,2013-09-02 16:16:00,
2013-09-02 11:21:00,70.5,60.3,30.04,NNE,12,3.0,6.0,70,0.00,,SCT004,0.00,VWS V14.01,2013-09-02 16:21:00,
2013-09-02 11:26:00,70.8,60.1,30.04,NNE,19,4.0,6.0,69,0.00,,SCT004,0.00,VWS V14.01,2013-09-02 16:26:00,
2013-09-02 11:31:00,71.0,59.9,30.04,North,4,4.0,7.0,68,0.00,,SCT004,0.00,VWS V14.01,2013-09-02 16:31:00,
2013-09-02 11:36:00,70.9,59.4,30.04,NE,35,5.0,7.0,67,0.00,,SCT004,0.00,VWS V14.01,2013-09-02 16:36:00,
2013-09-02 11:41:00,71.1,60.0,30.04,NW,310,1.0,3.0,68,0.00,,FEW010,0.00,VWS V14.01,2013-09-02 16:41:00,
2013-09-02 11:46:00,71.6,59.7,30.04,NNW,343,3.0,3.0,66,0.00,,FEW010,0.00,VWS V14.01,2013-09-02 16:46:00,
2013-09-02 11:51:00,71.9,59.9,30.04,North,8,0.0,3.0,66,0.00,,FEW010,0.00,VWS V14.01,2013-09-02 16:51:00,
2013-09-02 11:56:00,72.5,60.9,30.03,North,4,1.0,3.0,67,0.00,,FEW010,0.00,VWS V14.01,2013-09-02 16:56:00,
2013-09-02 12:01:00,73.0,60.5,30.03,NNE,14,6.0,7.0,65,0.00,,FEW010,0.00,VWS V14.01,2013-09-02 17:01:00,
2013-09-02 12:06:00,72.9,59.6,30.03,NNE,24,3.0,7.0,63,0.00,,FEW010,0.00,VWS V14.01,2013-09-02 17:06:00,
2013-09-02 12:11:00,72.8,59.0,30.03,NNE,27,2.0,6.0,62,0.00,,FEW010,0.00,VWS V14.01,2013-09-02 17:11:00,
2013-09-02 12:16:00,72.8,59.0,30.03,North,354,3.0,6.0,62,0.00,,FEW010,0.00,VWS V14.01,2013-09-02 17:16:00,
2013-09-02 12:21:00,72.9,59.1,30.03,North,4,3.0,5.0,62,0.00,,FEW010,0.00,VWS V14.01,2013-09-02 17:21:00,
2013-09-02 12:26:00,73.3,59.0,30.03,NNE,15,3.0,5.0,61,0.00,,FEW010,0.00,VWS V14.01,2013-09-02 17:26:00,
2013-09-02 12:31:00,73.3,58.1,30.03,NNE,14,4.0,6.0,59,0.00,,FEW010,0.00,VWS V14.01,2013-09-02 17:31:00,
2013-09-02 12:36:00,73.3,57.2,30.03,NNE,21,7.0,10.0,57,0.00,,FEW010,0.00,VWS V14.01,2013-09-02 17:36:00,
2013-09-02 12:41:00,73.3,57.2,30.02,NNW,345,5.0,7.0,57,0.00,,CLR,0.00,VWS V14.01,2013-09-02 17:41:00,
2013-09-02 12:46:00,73.7,57.0,30.02,NNE,29,4.0,4.0,56,0.00,,CLR,0.00,VWS V14.01,2013-09-02 17:46:00,
2013-09-02 12:51:00,74.1,57.9,30.02,North,10,2.0,8.0,57,0.00,,CLR,0.00,VWS V14.01,2013-09-02 17:51:00,
2013-09-02 12:56:00,74.6,57.4,30.02,NNE,18,0.0,3.0,55,0.00,,CLR,0.00,VWS V14.01,2013-09-02 17:56:00,
2013-09-02 13:01:00,74.6,57.9,30.02,NNW,342,3.0,5.0,56,0.00,,CLR,0.00,VWS V14.01,2013-09-02 18:01:00,
2013-09-02 13:06:00,75.0,56.7,30.02,North,359,5.0,9.0,53,0.00,,CLR,0.00,VWS V14.01,2013-09-02 18:06:00,
2013-09-02 13:11:00,74.7,56.5,30.01,NNE,25,4.0,8.0,53,0.00,,CLR,0.00,VWS V14.01,2013-09-02 18:11:00,
2013-09-02 13:16:00,74.6,57.4,30.01,NNE,29,4.0,7.0,55,0.00,,CLR,0.00,VWS V14.01,2013-09-02 18:16:00,
2013-09-02 13:21:00,75.1,57.3,30.01,NNE,19,2.0,6.0,54,0.00,,CLR,0.00,VWS V14.01,2013-09-02 18:21:00,
2013-09-02 13:26:00,75.7,56.8,30.01,North,4,7.0,7.0,52,0.00,,CLR,0.00,VWS V14.01,2013-09-02 18:26:00,
2013-09-02 13:31:00,75.6,56.8,30.01,NE,37,5.0,8.0,52,0.00,,CLR,0.00,VWS V14.01,2013-09-02 18:31:00,
2013-09-02 13:36:00,75.8,56.9,30.01,North,4,1.0,4.0,52,0.00,,CLR,0.00,VWS V14.01,2013-09-02 18:36:00,
2013-09-02 13:41:00,76.4,57.5,30.01,NNE,19,5.0,8.0,52,0.00,,CLR,0.00,VWS V14.01,2013-09-02 18:41:00,
2013-09-02 13:46:00,76.4,57.0,30.01,North,359,3.0,6.0,51,0.00,,CLR,0.00,VWS V14.01,2013-09-02 18:46:00,
2013-09-02 13:51:00,76.8,55.1,30.01,NW,323,1.0,7.0,47,0.00,,CLR,0.00,VWS V14.01,2013-09-02 18:51:00,
2013-09-02 13:56:00,77.3,56.7,30.01,NW,318,1.0,4.0,49,0.00,,CLR,0.00,VWS V14.01,2013-09-02 18:56:00,
2013-09-02 14:01:00,77.8,56.6,30.01,NNE,32,2.0,5.0,48,0.00,,CLR,0.00,VWS V14.01,2013-09-02 19:01:00,
2013-09-02 14:06:00,77.7,56.5,30.00,North,4,0.0,1.0,48,0.00,,CLR,0.00,VWS V14.01,2013-09-02 19:06:00,
2013-09-02 14:11:00,77.8,54.8,30.01,NNE,23,3.0,7.0,45,0.00,,CLR,0.00,VWS V14.01,2013-09-02 19:11:00,
2013-09-02 14:16:00,77.8,56.0,30.00,North,354,0.0,3.0,47,0.00,,CLR,0.00,VWS V14.01,2013-09-02 19:16:00,
2013-09-02 14:21:00,78.4,57.1,30.00,North,359,0.0,4.0,48,0.00,,CLR,0.00,VWS V14.01,2013-09-02 19:21:00,
2013-09-02 14:26:00,79.0,55.9,30.00,North,354,4.0,5.0,45,0.00,,CLR,0.00,VWS V14.01,2013-09-02 19:26:00,
2013-09-02 14:32:00,78.8,55.1,30.00,NW,326,2.0,4.0,44,0.00,,CLR,0.00,VWS V14.01,2013-09-02 19:32:00,
2013-09-02 14:37:00,78.8,56.3,30.00,NW,318,3.0,4.0,46,0.00,,CLR,0.00,VWS V14.01,2013-09-02 19:37:00,
2013-09-02 14:42:00,78.7,56.8,30.00,North,8,1.0,4.0,47,0.00,,CLR,0.00,VWS V14.01,2013-09-02 19:42:00,
2013-09-02 14:47:00,79.3,55.5,30.00,North,350,5.0,9.0,44,0.00,,CLR,0.00,VWS V14.01,2013-09-02 19:47:00,
2013-09-02 14:52:00,78.9,55.2,30.00,NNE,12,4.0,5.0,44,0.00,,CLR,0.00,VWS V14.01,2013-09-02 19:52:00,
2013-09-02 14:57:00,78.9,54.5,29.99,NNE,18,5.0,6.0,43,0.00,,CLR,0.00,VWS V14.01,2013-09-02 19:57:00,
2013-09-02 15:02:00,79.2,54.2,29.99,NNE,16,0.0,4.0,42,0.00,,CLR,0.00,VWS V14.01,2013-09-02 20:02:00,
2013-09-02 15:07:00,79.3,53.6,29.99,ESE,104,3.0,6.0,41,0.00,,CLR,0.00,VWS V14.01,2013-09-02 20:07:00,
2013-09-02 15:12:00,79.4,53.7,29.99,East,90,3.0,3.0,41,0.00,,CLR,0.00,VWS V14.01,2013-09-02 20:12:00,
2013-09-02 15:17:00,79.5,54.4,29.99,NE,41,2.0,3.0,42,0.00,,CLR,0.00,VWS V14.01,2013-09-02 20:17:00,
2013-09-02 15:22:00,79.6,53.8,29.99,NNE,17,0.0,1.0,41,0.00,,CLR,0.00,VWS V14.01,2013-09-02 20:22:00,
2013-09-02 15:27:00,79.6,54.5,29.99,North,354,5.0,8.0,42,0.00,,CLR,0.00,VWS V14.01,2013-09-02 20:27:00,
2013-09-02 15:32:00,79.0,52.6,29.99,NE,43,1.0,8.0,40,0.00,,CLR,0.00,VWS V14.01,2013-09-02 20:32:00,
2013-09-02 15:37:00,78.8,48.1,29.99,NNW,347,0.0,3.0,34,0.00,,CLR,0.00,VWS V14.01,2013-09-02 20:37:00,
2013-09-02 15:42:00,79.0,49.8,29.98,NE,37,3.0,5.0,36,0.00,,CLR,0.00,VWS V14.01,2013-09-02 20:42:00,
2013-09-02 15:47:00,79.2,49.2,29.98,NNE,14,2.0,3.0,35,0.00,,CLR,0.00,VWS V14.01,2013-09-02 20:47:00,
2013-09-02 15:52:00,79.5,47.1,29.98,North,10,0.0,4.0,32,0.00,,CLR,0.00,VWS V14.01,2013-09-02 20:52:00,
2013-09-02 15:57:00,79.8,49.7,29.98,NNE,33,1.0,3.0,35,0.00,,CLR,0.00,VWS V14.01,2013-09-02 20:57:00,
2013-09-02 16:02:00,80.3,48.6,29.98,NE,40,2.0,4.0,33,0.00,,CLR,0.00,VWS V14.01,2013-09-02 21:02:00,
2013-09-02 16:07:00,80.6,51.2,29.98,NNE,16,1.0,7.0,36,0.00,,CLR,0.00,VWS V14.01,2013-09-02 21:07:00,
2013-09-02 16:12:00,80.4,51.8,29.98,North,10,5.0,6.0,37,0.00,,CLR,0.00,VWS V14.01,2013-09-02 21:12:00,
2013-09-02 16:17:00,80.2,52.3,29.98,North,8,3.0,5.0,38,0.00,,CLR,0.00,VWS V14.01,2013-09-02 21:17:00,
2013-09-02 16:22:00,79.8,49.7,29.97,North,9,5.0,5.0,35,0.00,,CLR,0.00,VWS V14.01,2013-09-02 21:22:00,
2013-09-02 17:48:00,77.6,52.7,29.97,North,4,1.0,6.0,42,0.00,,CLR,0.00,VWS V14.01,2013-09-02 22:48:00,
2013-09-02 17:53:00,77.3,53.7,29.97,North,4,7.0,7.0,44,0.00,,CLR,0.00,VWS V14.01,2013-09-02 22:53:00,
2013-09-02 17:58:00,77.0,54.1,29.97,NNE,16,1.0,2.0,45,0.00,,CLR,0.00,VWS V14.01,2013-09-02 22:58:00,
2013-09-02 18:03:00,76.7,53.8,29.97,North,8,2.0,5.0,45,0.00,,CLR,0.00,VWS V14.01,2013-09-02 23:03:00,
2013-09-02 18:08:00,76.5,54.8,29.97,NNE,14,6.0,6.0,47,0.00,,CLR,0.00,VWS V14.01,2013-09-02 23:08:00,
2013-09-02 18:13:00,76.3,54.0,29.97,North,4,5.0,6.0,46,0.00,,CLR,0.00,VWS V14.01,2013-09-02 23:13:00,
2013-09-02 18:18:00,76.1,54.4,29.97,North,8,5.0,6.0,47,0.00,,CLR,0.00,VWS V14.01,2013-09-02 23:18:00,
2013-09-02 18:23:00,76.0,54.9,29.97,NNE,20,4.0,4.0,48,0.00,,CLR,0.00,VWS V14.01,2013-09-02 23:23:00,
2013-09-02 18:28:00,75.9,54.8,29.97,NNE,12,3.0,7.0,48,0.00,,CLR,0.00,VWS V14.01,2013-09-02 23:28:00,
2013-09-02 18:33:00,75.7,55.2,29.97,NNE,12,2.0,3.0,49,0.00,,CLR,0.00,VWS V14.01,2013-09-02 23:33:00,
2013-09-02 18:38:00,75.7,55.2,29.97,NNE,16,2.0,5.0,49,0.00,,CLR,0.00,VWS V14.01,2013-09-02 23:38:00,
2013-09-02 18:43:00,75.5,55.6,29.97,NNE,19,2.0,5.0,50,0.00,,CLR,0.00,VWS V14.01,2013-09-02 23:43:00,
2013-09-02 18:48:00,75.3,56.5,29.97,North,11,3.0,4.0,52,0.00,,CLR,0.00,VWS V14.01,2013-09-02 23:48:00,
2013-09-02 18:53:00,75.1,57.3,29.97,North,354,2.0,3.0,54,0.00,,CLR,0.00,VWS V14.01,2013-09-02 23:53:00,
2013-09-02 18:58:00,74.9,57.2,29.97,North,11,3.0,3.0,54,0.00,,CLR,0.00,VWS V14.01,2013-09-02 23:58:00,
2013-09-02 19:03:00,74.7,57.5,29.96,North,11,1.0,2.0,55,0.00,,CLR,0.00,VWS V14.01,2013-09-03 00:03:00,
2013-09-02 19:08:00,74.5,57.8,29.96,North,11,0.0,0.0,56,0.00,,CLR,0.00,VWS V14.01,2013-09-03 00:08:00,
2013-09-02 19:13:00,74.3,57.6,29.96,North,11,0.0,0.0,56,0.00,,FEW250,0.00,VWS V14.01,2013-09-03 00:13:00,
2013-09-02 19:18:00,74.0,57.8,29.96,North,11,0.0,3.0,57,0.00,,FEW250,0.00,VWS V14.01,2013-09-03 00:18:00,
2013-09-02 19:24:00,73.7,58.0,29.96,North,11,0.0,1.0,58,0.00,,FEW250,0.00,VWS V14.01,2013-09-03 00:24:00,
2013-09-02 19:29:00,73.3,58.1,29.96,North,11,0.0,2.0,59,0.00,,FEW250,0.00,VWS V14.01,2013-09-03 00:29:00,
2013-09-02 19:34:00,73.0,57.8,29.96,North,11,0.0,1.0,59,0.00,,FEW250,0.00,VWS V14.01,2013-09-03 00:34:00,
2013-09-02 19:39:00,72.7,58.5,29.96,North,11,0.0,1.0,61,0.00,,FEW250,0.00,VWS V14.01,2013-09-03 00:39:00,
2013-09-02 19:44:00,72.3,58.6,29.96,North,11,0.0,0.0,62,0.00,,FEW250,0.00,VWS V14.01,2013-09-03 00:44:00,
2013-09-02 19:49:00,71.9,58.2,29.96,North,11,0.0,1.0,62,0.00,,FEW250,0.00,VWS V14.01,2013-09-03 00:49:00,
2013-09-02 19:54:00,71.5,58.3,29.96,North,11,0.0,1.0,63,0.00,,FEW250,0.00,VWS V14.01,2013-09-03 00:54:00,
2013-09-02 19:59:00,71.2,58.4,29.96,North,11,1.0,2.0,64,0.00,,FEW250,0.00,VWS V14.01,2013-09-03 00:59:00,
2013-09-02 20:04:00,70.9,58.6,29.96,North,11,1.0,2.0,65,0.00,,FEW250,0.00,VWS V14.01,2013-09-03 01:04:00,
2013-09-02 20:09:00,70.7,58.4,29.96,North,11,0.0,0.0,65,0.00,,FEW250,0.00,VWS V14.01,2013-09-03 01:09:00,
2013-09-02 20:14:00,70.4,58.5,29.96,North,11,0.0,0.0,66,0.00,,FEW250,0.00,VWS V14.01,2013-09-03 01:14:00,
2013-09-02 20:19:00,70.1,58.7,29.96,North,11,0.0,1.0,67,0.00,,FEW250,0.00,VWS V14.01,2013-09-03 01:19:00,
2013-09-02 20:24:00,69.9,58.9,29.96,North,11,0.0,1.0,68,0.00,,FEW250,0.00,VWS V14.01,2013-09-03 01:24:00,
2013-09-02 20:29:00,69.7,58.7,29.97,North,11,0.0,2.0,68,0.00,,FEW250,0.00,VWS V14.01,2013-09-03 01:29:00,
2013-09-02 20:34:00,69.6,58.6,29.97,North,11,1.0,3.0,68,0.00,,FEW250,0.00,VWS V14.01,2013-09-03 01:34:00,
2013-09-02 20:39:00,69.6,58.6,29.97,North,11,1.0,2.0,68,0.00,,FEW250,0.00,VWS V14.01,2013-09-03 01:39:00,
2013-09-02 20:44:00,69.6,59.0,29.97,North,11,0.0,0.0,69,0.00,,FEW250,0.00,VWS V14.01,2013-09-03 01:44:00,
2013-09-02 20:49:00,69.4,58.8,29.97,North,11,2.0,2.0,69,0.00,,FEW250,0.00,VWS V14.01,2013-09-03 01:49:00,
2013-09-02 20:54:00,69.2,59.0,29.97,North,11,0.0,1.0,70,0.00,,FEW250,0.00,VWS V14.01,2013-09-03 01:54:00,
2013-09-02 20:59:00,68.9,59.1,29.98,North,11,0.0,1.0,71,0.00,,FEW250,0.00,VWS V14.01,2013-09-03 01:59:00,
2013-09-02 21:04:00,68.7,58.9,29.98,North,11,0.0,2.0,71,0.00,,FEW250,0.00,VWS V14.01,2013-09-03 02:04:00,
2013-09-02 21:09:00,68.6,59.2,29.98,North,11,0.0,2.0,72,0.00,,FEW250,0.00,VWS V14.01,2013-09-03 02:09:00,
2013-09-02 21:14:00,68.5,59.1,29.98,North,11,1.0,2.0,72,0.00,,FEW250,0.00,VWS V14.01,2013-09-03 02:14:00,
2013-09-02 21:19:00,68.5,59.1,29.98,North,11,0.0,1.0,72,0.00,,FEW250,0.00,VWS V14.01,2013-09-03 02:19:00,
2013-09-02 21:24:00,68.5,59.1,29.98,North,11,0.0,1.0,72,0.00,,FEW250,0.00,VWS V14.01,2013-09-03 02:24:00,
2013-09-02 21:29:00,68.4,59.0,29.98,North,11,0.0,2.0,72,0.00,,FEW250,0.00,VWS V14.01,2013-09-03 02:29:00,
2013-09-02 21:34:00,68.2,59.2,29.99,North,11,0.0,2.0,73,0.00,,FEW250,0.00,VWS V14.01,2013-09-03 02:34:00,
2013-09-02 21:39:00,68.0,59.0,29.98,North,11,0.0,0.0,73,0.00,,FEW250,0.00,VWS V14.01,2013-09-03 02:39:00,
2013-09-02 21:44:00,67.7,59.1,29.99,North,11,0.0,1.0,74,0.00,,FEW250,0.00,VWS V14.01,2013-09-03 02:44:00,
2013-09-02 21:49:00,67.4,59.2,29.99,North,11,0.0,1.0,75,0.00,,FEW250,0.00,VWS V14.01,2013-09-03 02:49:00,
2013-09-02 21:54:00,67.2,58.6,29.99,North,11,0.0,1.0,74,0.00,,FEW250,0.00,VWS V14.01,2013-09-03 02:54:00,
2013-09-02 21:59:00,67.1,58.9,29.99,North,11,0.0,0.0,75,0.00,,FEW250,0.00,VWS V14.01,2013-09-03 02:59:00,
2013-09-02 22:04:00,67.0,58.8,29.99,North,11,0.0,0.0,75,0.00,,FEW250,0.00,VWS V14.01,2013-09-03 03:04:00,
2013-09-02 22:09:00,66.9,58.3,29.99,North,11,0.0,1.0,74,0.00,,FEW250,0.00,VWS V14.01,2013-09-03 03:09:00,
2013-09-02 22:14:00,66.7,58.5,29.99,North,11,1.0,1.0,75,0.00,,FEW250,0.00,VWS V14.01,2013-09-03 03:14:00,
2013-09-02 22:19:00,66.6,58.4,29.99,North,11,1.0,1.0,75,0.00,,FEW250,0.00,VWS V14.01,2013-09-03 03:19:00,
2013-09-02 22:24:00,66.6,58.4,29.99,North,11,1.0,2.0,75,0.00,,FEW250,0.00,VWS V14.01,2013-09-03 03:24:00,
2013-09-02 22:29:00,66.5,58.3,29.99,North,11,0.0,1.0,75,0.00,,FEW250,0.00,VWS V14.01,2013-09-03 03:29:00,
2013-09-02 22:34:00,66.5,58.3,29.99,North,11,0.0,0.0,75,0.00,,FEW250,0.00,VWS V14.01,2013-09-03 03:34:00,
2013-09-02 22:39:00,66.5,58.0,29.99,North,11,2.0,2.0,74,0.00,,FEW250,0.00,VWS V14.01,2013-09-03 03:39:00,
2013-09-02 22:44:00,66.7,58.2,29.99,North,11,2.0,4.0,74,0.00,,CLR,0.00,VWS V14.01,2013-09-03 03:44:00,
2013-09-02 22:49:00,66.8,58.3,29.99,North,11,2.0,2.0,74,0.00,,CLR,0.00,VWS V14.01,2013-09-03 03:49:00,
2013-09-02 22:54:00,66.7,58.2,29.99,North,11,1.0,1.0,74,0.00,,CLR,0.00,VWS V14.01,2013-09-03 03:54:00,
2013-09-02 22:59:00,66.5,58.3,29.99,North,11,1.0,2.0,75,0.00,,CLR,0.00,VWS V14.01,2013-09-03 03:59:00,
2013-09-02 23:01:00,66.4,58.2,29.99,North,11,1.0,1.0,75,0.00,,CLR,0.00,VWS V14.01,2013-09-03 04:01:00,
2013-09-02 23:02:00,66.4,58.2,29.99,North,11,0.0,1.0,75,0.00,,CLR,0.00,VWS V14.01,2013-09-03 04:02:00,
2013-09-02 23:07:00,66.2,58.4,29.99,North,11,0.0,1.0,76,0.00,,CLR,0.00,VWS V14.01,2013-09-03 04:07:00,
2013-09-02 23:12:00,66.0,58.2,29.99,North,11,0.0,2.0,76,0.00,,CLR,0.00,VWS V14.01,2013-09-03 04:12:00,
2013-09-02 23:17:00,66.0,58.2,29.99,North,11,0.0,3.0,76,0.00,,CLR,0.00,VWS V14.01,2013-09-03 04:17:00,
2013-09-02 23:22:00,66.1,58.3,29.99,North,11,3.0,3.0,76,0.00,,CLR,0.00,VWS V14.01,2013-09-03 04:22:00,
2013-09-02 23:27:00,66.1,58.0,29.99,North,11,0.0,2.0,75,0.00,,CLR,0.00,VWS V14.01,2013-09-03 04:27:00,
2013-09-02 23:32:00,66.0,57.9,29.99,North,11,1.0,2.0,75,0.00,,CLR,0.00,VWS V14.01,2013-09-03 04:32:00,
2013-09-02 23:37:00,65.9,58.1,29.99,North,11,1.0,2.0,76,0.00,,CLR,0.00,VWS V14.01,2013-09-03 04:37:00,
2013-09-02 23:42:00,65.7,57.9,29.99,North,11,0.0,2.0,76,0.00,,CLR,0.00,VWS V14.01,2013-09-03 04:42:00,
2013-09-02 23:47:00,65.5,57.7,29.99,North,11,1.0,1.0,76,0.00,,CLR,0.00,VWS V14.01,2013-09-03 04:47:00,
2013-09-02 23:52:00,65.4,57.7,29.99,North,11,2.0,2.0,76,0.00,,CLR,0.00,VWS V14.01,2013-09-03 04:52:00,
2013-09-02 23:57:00,65.4,57.7,29.99,North,11,0.0,1.0,76,0.00,,CLR,0.00,VWS V14.01,2013-09-03 04:57:00,